Date,TemperatureHighF,TemperatureAvgF,TemperatureLowF,DewpointHighF,DewpointAvgF,DewpointLowF,HumidityHigh,HumidityAvg,HumidityLow,PressureMaxIn,PressureMinIn,WindSpeedMaxMPH,WindSpeedAvgMPH,GustSpeedMaxMPH,PrecipitationSumIn
2014-1-1,19.3,13.6,4.4,16.9,11.4,-65.2,93,90,87,30.39,30.03,12,3,19,0.00
2014-1-2,15.2,7.2,-5.4,11.1,4.5,-7.3,93,88,81,30.46,30.36,0,0,0,0.00
2014-1-3,41.9,27.2,6.9,32.7,20.9,3.9,91,77,67,30.38,29.61,17,6,30,0.00
2014-1-4,38.6,25.0,16.2,32.6,20.7,12.2,91,83,70,30.16,29.61,13,6,23,0.00
2014-1-5,16.2,7.9,-4.0,12.6,0.6,-11.6,86,71,60,30.57,30.12,14,7,22,0.00
2014-1-6,11.3,1.2,-6.0,0.4,-6.2,-12.0,82,70,57,30.56,30.29,10,2,20,0.00
2014-1-7,37.9,21.0,-0.2,27.5,15.5,-4.2,87,79,62,30.30,30.02,8,1,11,0.00
2014-1-8,27.2,22.4,13.7,22.7,18.9,11.9,95,86,81,30.35,30.16,9,3,14,0.00
2014-1-9,32.2,21.6,8.4,30.5,19.4,6.7,99,91,85,30.33,29.90,8,2,13,0.00
2014-1-10,37.0,34.9,32.3,35.6,33.6,30.5,96,95,92,29.91,29.51,8,1,14,0.00
2014-1-11,48.9,37.4,26.9,37.0,32.0,25.4,95,82,57,29.85,29.64,9,1,17,0.00
2014-1-12,49.7,43.7,36.4,40.0,34.8,31.5,86,71,58,29.75,29.45,11,2,18,0.00
2014-1-13,48.4,39.8,34.9,38.8,33.3,30.4,93,77,56,29.90,29.66,9,1,17,0.00
2014-1-14,47.9,38.7,26.5,36.9,25.4,15.7,78,60,34,30.26,29.71,14,5,24,0.00
2014-1-15,39.9,29.8,16.4,32.2,22.6,13.2,88,74,64,30.27,29.72,11,1,17,0.00
2014-1-16,46.6,38.3,23.9,35.4,26.0,14.9,90,61,45,30.11,29.78,15,7,32,0.00
2014-1-17,38.5,27.9,17.7,25.6,16.8,8.5,75,63,44,30.20,29.88,9,3,15,0.00
2014-1-18,47.4,38.2,25.2,33.6,27.9,22.5,90,67,51,30.11,29.72,14,5,32,0.00
2014-1-19,62.1,41.4,24.4,33.6,28.4,-42.1,91,64,33,30.08,29.74,12,3,18,0.00
2014-1-20,51.7,32.3,11.8,34.4,23.7,6.0,93,72,42,30.45,29.83,14,4,26,0.00
2014-1-21,24.5,13.8,2.6,11.9,3.6,-4.1,80,64,44,30.52,30.08,11,3,17,0.00
2014-1-22,37.9,24.7,4.7,25.7,15.4,-2.7,86,67,49,30.60,30.07,14,4,23,0.00
2014-1-23,19.4,8.2,-0.3,4.1,-0.3,-4.6,82,68,47,30.86,30.55,11,2,17,0.00
2014-1-24,53.2,32.4,10.3,37.6,19.4,2.5,74,59,43,30.55,29.76,11,5,22,0.00
2014-1-25,51.4,42.2,32.5,40.2,34.3,28.0,91,73,58,30.08,29.65,10,3,17,0.00
2014-1-26,60.2,42.2,15.2,36.5,28.0,1.4,91,58,31,30.31,29.61,18,7,32,0.00
2014-1-27,17.4,10.6,4.6,3.3,0.2,-2.7,79,62,48,30.51,30.31,10,2,17,0.00
2014-1-28,26.1,13.0,-0.3,14.4,6.0,-2.9,89,74,51,30.47,30.24,10,1,14,0.00
2014-1-29,48.4,27.3,5.2,22.9,14.0,2.8,91,62,30,30.24,29.65,14,5,24,0.00
2014-1-30,43.7,36.1,26.0,30.3,22.1,16.8,71,57,40,30.02,29.47,17,6,27,0.00
2014-1-31,26.0,21.8,17.0,20.9,18.0,14.2,94,85,67,30.11,29.90,12,4,19,0.00
2014-2-1,29.4,23.7,15.9,25.2,19.9,11.1,94,85,74,30.29,29.85,10,2,16,0.00
2014-2-2,21.9,11.1,-0.6,14.1,7.0,-65.0,92,84,69,30.40,30.22,7,0,10,0.00
2014-2-3,33.1,18.6,2.5,21.3,13.0,0.3,92,79,56,30.27,30.14,7,1,12,0.00
2014-2-4,26.4,20.1,7.7,22.3,18.1,5.6,94,91,80,30.33,30.07,13,6,26,0.00
2014-2-5,11.5,5.6,0.6,5.6,1.2,-2.6,91,81,69,30.67,30.32,13,5,25,0.00
2014-2-6,10.1,2.3,-9.7,2.9,-2.3,-11.7,90,80,70,30.65,30.41,6,1,10,0.00
2014-2-7,15.1,10.5,3.1,12.1,6.2,0.0,90,82,75,30.40,30.14,9,3,12,0.00
2014-2-8,27.2,21.4,14.3,23.9,19.0,12.0,93,90,86,30.22,29.99,10,3,15,0.00
2014-2-9,21.2,16.2,12.1,19.6,13.1,-63.5,93,87,81,30.43,30.18,8,3,14,0.00
2014-2-10,16.3,12.0,8.5,8.9,6.8,-63.1,88,79,72,30.51,30.41,113,1,12,0.00
2014-2-11,23.6,16.3,11.5,15.8,10.5,-60.5,83,77,68,30.46,30.13,10,3,16,0.00
2014-2-12,33.2,26.5,17.9,28.7,22.7,12.2,91,85,77,30.14,29.89,13,3,23,0.00
2014-2-13,52.7,37.1,27.2,39.1,31.5,24.8,91,81,58,29.90,29.65,8,2,14,0.00
2014-2-14,41.1,31.2,22.6,36.0,26.8,20.5,92,83,70,30.09,29.55,11,3,17,0.00
2014-2-15,52.0,34.6,21.4,40.0,29.0,19.5,93,80,59,30.08,29.83,11,3,18,0.00
2014-2-16,40.2,32.6,24.6,34.3,29.4,-48.6,95,88,78,30.13,29.77,9,3,15,0.00
2014-2-17,57.4,42.7,31.8,38.0,32.2,28.5,94,70,34,30.00,29.73,10,2,18,0.00
2014-2-18,69.2,49.9,36.0,40.8,34.1,27.6,82,57,21,29.98,29.65,14,3,20,0.00
2014-2-19,56.1,41.4,26.9,39.6,32.3,25.0,92,72,32,29.99,29.51,8,1,15,0.00
2014-2-20,47.4,39.0,34.0,39.7,32.6,-48.3,95,79,50,29.84,29.37,15,6,27,0.00
2014-2-21,55.7,38.6,26.1,34.2,27.3,22.5,90,66,34,29.89,29.76,13,2,21,0.00
2014-2-22,48.7,39.1,31.6,36.0,31.1,25.9,88,73,55,30.16,29.86,12,3,21,0.00
2014-2-23,32.4,29.1,26.8,28.3,20.2,-52.7,93,69,55,30.35,30.14,11,3,18,0.00
2014-2-24,38.0,29.5,26.7,23.6,21.6,18.7,84,72,53,30.35,30.11,8,1,15,0.00
2014-2-25,27.3,20.1,16.2,24.1,15.6,9.4,93,82,64,30.50,30.27,10,4,18,0.00
2014-2-26,33.1,20.6,5.6,24.1,14.8,3.6,92,78,62,30.49,29.96,13,3,22,0.00
2014-2-27,29.7,23.2,15.2,19.8,12.7,9.0,89,65,43,30.15,29.82,31,2,31,0.00
2014-2-28,50.9,33.8,23.6,34.9,22.4,12.3,87,63,47,30.11,29.70,11,4,18,0.00
2014-3-1,24.2,14.0,2.7,21.0,10.3,-0.3,92,85,69,30.48,30.09,14,7,24,0.00
2014-3-2,5.8,3.0,-0.4,0.4,-2.4,-69.2,88,77,68,30.58,30.43,12,6,20,0.00
2014-3-3,24.3,10.4,-4.7,11.5,2.1,-7.4,89,69,50,30.58,30.16,12,3,18,0.00
2014-3-4,48.2,29.8,15.0,33.2,21.0,8.7,85,70,54,30.16,29.89,10,3,17,0.00
2014-3-5,32.9,28.9,21.8,29.3,25.7,20.2,93,87,81,30.29,30.02,10,3,17,0.00
2014-3-6,45.1,32.3,20.3,37.4,29.7,18.8,96,90,73,30.27,29.83,10,4,17,0.00
2014-3-7,50.2,40.0,30.4,41.9,35.2,25.0,92,83,72,30.13,29.78,12,5,23,0.00
2014-3-8,44.6,32.5,25.6,28.1,24.2,21.4,87,73,46,30.34,30.13,11,4,18,0.00
2014-3-9,69.2,46.5,24.2,38.8,30.9,-35.9,90,60,27,30.29,29.80,14,4,24,0.00
2014-3-10,76.3,57.2,38.1,43.0,37.6,31.2,76,51,24,29.87,29.58,8,1,15,0.00
2014-3-11,59.2,47.7,36.4,46.0,38.7,34.3,93,71,54,30.08,29.41,18,5,32,0.00
2014-3-12,59.5,42.9,28.7,38.2,31.6,26.9,93,69,30,30.22,30.07,10,3,19,0.00
2014-3-13,70.5,50.2,27.9,38.1,28.6,15.5,89,52,12,30.08,29.70,12,3,20,0.00
2014-3-14,66.0,53.1,39.8,36.1,30.0,24.5,71,43,21,29.96,29.65,11,2,19,0.00
2014-3-15,76.3,51.3,33.9,39.4,30.3,-44.0,81,52,15,30.11,29.72,16,4,34,0.00
2014-3-16,47.4,36.0,27.6,31.0,24.6,20.0,94,66,35,30.34,30.05,14,6,25,0.00
2014-3-17,63.8,43.3,25.9,35.0,28.3,20.6,83,58,31,30.07,29.44,14,6,24,0.00
2014-3-18,62.7,49.1,35.5,38.8,35.3,31.6,88,60,39,29.80,29.35,13,4,23,0.00
2014-3-19,57.9,43.7,34.6,34.5,32.0,29.5,90,66,38,30.14,29.79,12,5,22,0.00
2014-3-20,70.5,49.5,31.0,35.0,29.7,22.4,86,54,16,30.07,29.78,10,2,18,0.00
2014-3-21,63.8,47.8,36.9,38.7,33.2,29.4,84,60,28,29.94,29.71,14,4,26,0.00
2014-3-23,62.8,62.8,62.8,30.0,30.0,30.0,29,29,29,29.94,29.94,8,8,14,0.00